Wind_Speed
12 11 10 10 9 9 8 8 8 8 12 8 11 9 8 9 11 12 10 8 8 7 5 3 2 2 4 6 8 10 11 12 13 13 13 14 16 16
12 13 13 12 12 12 11 8 7 8 12 13 11 9 9 10 13 14 13 12 10 8 7 6 7 8 10 12 14 15 15 15 14 14 13 14 14 13
11 12 13 14 13 14 14 13 12 12 14 14 10 12 12 14 14 15 15 13 15 14 13 13 12 12 13 13 14 15 15 15 14 13 11 12 11 10
12 10 11 11 12 12 13 15 15 15 16 17 16 14 15 16 17 17 15 15 12 10 11 11 11 11 10 10 10 9 10 10 10 10 11 11 11 13
13 12 11 11 11 11 11 12 13 13 13 16 19 17 16 14 14 14 13 13 13 14 12 10 10 10 10 10 10 10 11 11 11 11 12 11 12 12
14 14 13 13 13 13 13 12 12 12 12 13 15 15 13 11 12 13 14 14 13 14 14 13 11 9 9 11 11 12 13 10 8 7 8 8 8 8
16 16 16 16 16 15 15 13 13 13 12 13 13 13 13 13 14 14 14 14 14 14 14 11 10 10 11 14 12 11 11 7 5 6 7 6 7 9
19 18 18 18 18 18 18 17 18 15 14 15 16 16 15 14 13 14 14 13 13 9 8 9 12 13 12 10 10 11 10 7 8 7 6 7 8 10
21 20 19 19 20 20 19 20 20 21 17 17 16 14 15 13 11 12 13 13 13 13 12 11 10 10 10 9 10 12 11 10 8 6 8 10 11 12
23 22 23 21 21 21 21 22 21 20 19 19 17 16 16 15 14 14 14 14 14 13 11 11 9 9 10 11 12 13 11 9 8 9 11 11 12 13
25 24 24 24 22 22 24 23 22 21 20 20 19 18 18 16 16 15 15 14 13 12 11 11 10 10 9 11 13 11 9 8 12 12 12 13 14 14
28 27 26 26 24 23 25 24 25 20 20 21 21 19 19 18 17 16 15 15 14 12 10 9 8 7 6 9 11 10 9 12 13 13 15 15 15 15
30 29 27 25 26 25 25 26 25 21 21 22 21 21 21 20 19 17 17 16 16 15 14 13 13 11 10 11 11 12 13 14 13 15 15 15 16 14
29 27 25 24 24 25 25 26 24 23 23 24 23 22 22 21 19 19 19 18 17 17 17 16 15 13 13 13 14 12 11 13 15 15 15 11 14 15
26 24 23 22 23 25 25 24 24 26 26 26 25 23 21 19 20 23 21 20 19 18 18 17 17 17 16 15 15 14 14 14 16 13 12 14 14 13
21 23 23 22 22 24 24 24 26 27 27 27 25 23 22 23 23 22 22 21 21 20 20 18 18 18 17 17 17 15 14 12 13 16 15 14 12 13
18 21 21 21 21 21 22 23 24 27 29 28 26 25 24 24 24 24 25 24 24 22 20 19 19 19 19 18 18 15 16 15 15 15 15 14 10 12
19 22 22 21 22 22 22 23 24 26 28 28 28 27 27 27 26 26 27 27 26 24 22 20 19 19 19 19 18 16 15 15 15 14 13 15 11 9
18 20 22 23 22 23 24 24 26 25 25 27 29 30 30 30 30 30 30 30 29 27 24 23 22 21 21 22 18 15 15 14 13 12 11 13 13 10
20 20 22 23 24 24 23 23 25 26 27 28 28 29 30 31 32 34 34 34 32 29 27 27 27 24 22 21 18 14 13 14 14 12 10 11 11 10
21 23 23 24 25 25 25 23 23 23 23 25 26 28 29 30 32 33 35 35 35 35 33 33 26 18 20 21 20 16 14 13 14 12 11 12 11 8
23 25 25 25 26 26 25 23 21 21 20 22 24 25 25 27 29 30 33 35 36 36 34 30 25 25 24 22 19 17 13 13 13 12 11 10 11 7
26 28 29 29 29 29 25 23 22 21 21 20 21 24 25 26 26 27 28 28 30 32 31 30 27 26 24 21 18 16 14 12 12 11 11 10 10 10
Wind_Direction
267 274 276 272 287 302 320 331 314 313 317 327 345 341 347 350 345 347 353 1 12 19 32 58 107 216 249 261 271 278 286 286 288 287 279 276 274 271
275 268 269 271 275 280 287 295 299 289 285 295 317 313 314 319 320 321 323 320 322 316 305 296 284 276 272 275 281 284 287 285 280 277 279 275 272 271
292 277 267 268 271 273 275 274 270 275 277 285 290 291 290 301 306 307 307 304 304 308 303 296 289 282 277 275 275 276 277 279 281 283 282 273 269 277
301 283 281 282 285 285 278 274 272 270 273 275 279 278 282 292 299 303 305 306 304 294 293 294 294 291 289 285 279 277 277 277 281 281 275 273 281 281
302 294 283 282 285 285 290 291 291 286 282 283 283 284 283 288 293 295 302 308 312 314 314 307 304 306 307 305 300 294 288 287 287 276 267 269 268 280
290 291 290 287 284 284 284 285 289 286 282 283 288 293 297 289 279 285 287 288 293 302 303 295 288 285 288 293 292 292 291 289 279 270 264 260 263 269
282 283 283 282 283 283 287 290 284 280 281 281 283 282 275 269 267 274 279 282 283 287 289 281 273 273 265 281 287 292 300 308 289 279 276 279 279 277
278 276 279 280 281 280 279 280 281 281 275 273 276 279 281 273 266 271 278 281 292 293 275 274 278 276 271 267 276 285 296 301 294 290 290 297 300 296
279 279 277 277 278 278 276 276 280 287 285 277 282 280 281 285 277 273 277 280 283 285 286 281 274 266 264 263 269 282 296 295 285 287 296 297 298 298
278 278 278 277 276 277 275 274 274 278 278 278 280 277 276 278 276 274 276 278 281 282 285 285 280 272 268 269 275 283 284 271 274 294 301 305 305 304
275 274 275 276 277 274 272 273 272 272 273 275 274 275 274 274 275 275 274 273 275 275 272 273 272 270 264 268 267 273 261 257 284 294 301 306 305 304
275 274 274 276 275 271 270 272 271 272 269 268 271 271 271 271 270 273 272 273 274 281 269 254 252 256 275 265 257 257 262 280 289 297 307 305 303 302
277 276 275 275 274 271 267 268 272 273 265 266 267 266 266 266 267 268 267 266 266 266 266 269 269 264 251 261 261 263 268 275 280 292 295 299 300 301
277 279 277 274 269 268 266 268 271 270 266 265 267 267 267 268 267 266 264 264 265 266 267 266 267 266 259 261 262 267 259 271 283 286 291 283 295 299
279 280 277 272 268 266 266 266 266 266 269 267 269 272 272 268 259 260 264 265 265 265 266 268 266 266 264 262 265 266 273 279 284 281 285 296 296 290
281 280 279 277 273 271 268 265 265 268 270 271 271 270 266 262 261 261 262 263 263 263 265 266 265 265 265 264 265 271 275 275 278 284 290 294 292 292
285 281 281 280 280 277 274 270 267 267 268 271 271 269 266 263 261 259 259 256 256 260 260 260 260 260 260 263 268 272 275 276 277 281 287 289 293 285
291 291 289 285 281 280 275 273 268 265 266 268 267 265 264 263 263 260 258 256 256 255 255 256 256 257 261 266 267 269 265 270 275 280 284 292 293 286
300 301 300 298 292 284 279 274 272 269 267 264 264 263 261 260 258 256 256 255 254 254 254 253 252 250 252 258 262 261 266 265 269 278 282 286 293 296
298 299 301 303 302 299 295 290 283 275 268 264 264 264 262 259 257 255 253 253 253 252 252 251 250 248 252 257 258 260 257 259 266 271 280 281 287 289
298 302 305 305 303 299 297 294 293 287 281 275 269 265 263 263 262 259 256 254 251 247 244 246 250 249 242 246 254 258 251 257 263 271 281 290 294 288
297 301 302 302 302 298 291 293 294 294 288 278 275 271 267 264 264 265 261 257 253 252 251 247 237 238 237 244 248 249 248 245 258 271 279 281 282 284
291 294 296 297 298 298 286 280 282 286 288 283 276 274 272 270 268 269 267 265 258 252 247 239 233 234 236 238 242 247 245 242 242 251 266 272 275 286
Height
1494 1494 1493 1492 1490 1488 1486 1484 1483 1482 1480 1477 1475 1473 1471 1469 1467 1465 1463 1462 1460 1458 1457 1458 1460 1461 1462 1464 1464 1466 1466 1467 1467 1467 1467 1468 1469 1467
1490 1490 1489 1488 1487 1485 1484 1483 1481 1480 1479 1475 1474 1472 1470 1468 1467 1465 1464 1462 1460 1459 1459 1459 1459 1460 1462 1462 1462 1462 1462 1462 1464 1463 1461 1462 1464 1462
1486 1485 1485 1484 1483 1481 1480 1479 1478 1477 1475 1473 1471 1470 1468 1467 1465 1463 1462 1461 1459 1457 1456 1456 1456 1456 1456 1457 1456 1457 1457 1457 1457 1456 1456 1458 1459 1457
1483 1481 1481 1481 1479 1477 1475 1474 1473 1472 1471 1469 1468 1467 1466 1464 1462 1461 1459 1457 1456 1456 1455 1454 1453 1453 1453 1453 1453 1453 1452 1452 1451 1452 1453 1454 1451 1454
1479 1477 1477 1476 1475 1474 1472 1471 1468 1467 1466 1465 1463 1462 1461 1460 1459 1458 1456 1455 1454 1452 1451 1451 1450 1449 1449 1449 1449 1449 1449 1449 1449 1450 1450 1450 1452 1450
1476 1475 1474 1472 1471 1469 1468 1467 1465 1463 1462 1461 1459 1458 1457 1457 1456 1455 1455 1453 1452 1451 1449 1448 1448 1448 1447 1446 1446 1446 1446 1446 1446 1446 1447 1447 1447 1447
1472 1471 1469 1468 1467 1465 1464 1462 1461 1460 1459 1457 1456 1454 1453 1453 1453 1452 1451 1450 1449 1448 1447 1446 1446 1446 1445 1444 1444 1444 1443 1443 1444 1444 1444 1444 1444 1444
1467 1466 1464 1463 1462 1461 1459 1458 1457 1455 1454 1452 1450 1449 1448 1447 1448 1448 1447 1447 1446 1445 1443 1443 1443 1441 1441 1441 1441 1441 1440 1441 1440 1440 1440 1439 1439 1438
1460 1460 1459 1458 1456 1455 1454 1453 1452 1450 1449 1448 1446 1445 1444 1444 1443 1443 1443 1442 1442 1441 1440 1440 1439 1438 1438 1437 1437 1437 1437 1436 1436 1436 1436 1436 1435 1434
1454 1453 1452 1452 1451 1450 1449 1447 1447 1445 1444 1443 1442 1442 1440 1440 1439 1439 1438 1437 1437 1437 1436 1436 1435 1435 1435 1434 1433 1433 1433 1433 1433 1433 1432 1431 1430 1430
1447 1446 1445 1445 1445 1444 1441 1441 1440 1439 1439 1438 1437 1436 1436 1436 1436 1435 1434 1434 1432 1432 1432 1432 1431 1431 1431 1430 1430 1430 1430 1430 1430 1429 1428 1428 1426 1425
1439 1438 1438 1437 1437 1436 1435 1434 1433 1434 1433 1432 1431 1431 1431 1431 1431 1431 1431 1430 1430 1429 1428 1429 1428 1428 1428 1426 1426 1426 1427 1427 1426 1425 1424 1423 1422 1421
1430 1430 1431 1431 1429 1429 1428 1427 1427 1428 1427 1426 1426 1426 1425 1425 1426 1426 1426 1426 1425 1425 1425 1425 1424 1425 1425 1424 1424 1424 1424 1423 1422 1422 1420 1419 1417 1416
1421 1421 1422 1422 1421 1421 1421 1421 1421 1421 1420 1420 1420 1420 1420 1421 1421 1421 1420 1420 1420 1420 1420 1420 1420 1420 1420 1420 1420 1419 1419 1419 1418 1417 1416 1414 1413 1411
1413 1413 1412 1412 1413 1412 1413 1414 1414 1413 1413 1413 1413 1414 1415 1416 1415 1415 1416 1416 1415 1415 1415 1415 1415 1415 1415 1414 1415 1415 1415 1414 1413 1412 1411 1410 1408 1407
1407 1405 1405 1405 1405 1405 1405 1406 1406 1406 1405 1405 1407 1408 1408 1408 1408 1408 1409 1410 1410 1410 1410 1410 1410 1410 1409 1409 1409 1409 1409 1409 1408 1407 1406 1405 1403 1401
1401 1399 1398 1397 1397 1396 1396 1397 1398 1397 1397 1397 1398 1399 1399 1399 1400 1401 1401 1401 1401 1402 1403 1403 1403 1404 1404 1404 1403 1403 1403 1403 1402 1401 1400 1399 1399 1397
1395 1393 1391 1391 1389 1389 1388 1388 1388 1388 1387 1388 1388 1389 1390 1390 1391 1391 1392 1393 1393 1394 1395 1396 1397 1397 1398 1398 1398 1398 1398 1397 1397 1396 1395 1394 1394 1393
1390 1388 1385 1383 1382 1381 1380 1379 1378 1379 1379 1378 1378 1378 1379 1380 1381 1381 1382 1383 1384 1386 1388 1388 1389 1390 1391 1390 1392 1392 1392 1392 1391 1391 1390 1389 1388 1388
1385 1382 1380 1377 1375 1373 1371 1370 1368 1368 1368 1368 1368 1368 1369 1370 1370 1369 1371 1372 1374 1377 1380 1380 1381 1383 1384 1384 1385 1385 1386 1386 1386 1386 1386 1385 1384 1382
1377 1375 1373 1370 1368 1365 1364 1362 1360 1359 1358 1358 1358 1358 1359 1360 1359 1360 1361 1362 1363 1365 1367 1369 1374 1378 1378 1378 1379 1379 1379 1380 1381 1381 1381 1380 1379 1378
1369 1367 1365 1363 1360 1358 1356 1354 1353 1352 1351 1350 1349 1350 1350 1350 1350 1350 1351 1351 1352 1354 1357 1361 1365 1367 1369 1370 1373 1374 1374 1374 1375 1376 1376 1376 1375 1374
1362 1359 1357 1354 1352 1349 1346 1346 1345 1344 1343 1342 1342 1341 1341 1341 1341 1341 1342 1342 1344 1345 1349 1352 1356 1358 1361 1364 1367 1368 1369 1370 1371 1371 1371 1370 1370 1369